Le nostre stazioni meteo in Italia

Pubblicità
Il mio iltempo24.it
Threave, Gran Bretagna (99090): Temperatura & dewpoint: 13.04.2019 16:00:00 - 19.04.2019 16:00:00 (BST)Threave, Gran Bretagna (99090): Temperatura -20cm & Temperatura -100cm: 13.04.2019 16:00:00 - 19.04.2019 16:00:00 (BST)Threave, Gran Bretagna (99090): precipitazioni: 13.04.2019 16:00:00 - 19.04.2019 16:00:00 (BST)
Data & Tempo tt [°C] td [°C] tt -20cm [°C] tt -100cm [°C] rr [mm]
19.04.2019 16:00:00 20,7 5,2 - - -
19.04.2019 15:00:00 20,7 4,7 - - 0,0
19.04.2019 14:00:00 20,6 5,0 - - 0,0
19.04.2019 13:00:00 20,3 6,3 - - 0,0
19.04.2019 12:00:00 18,7 5,5 - - 0,0
19.04.2019 11:00:00 16,5 7,2 - - 0,0
19.04.2019 10:00:00 13,9 7,0 10,0 8,4 0,0
19.04.2019 09:00:00 9,9 7,6 - - 0,0
19.04.2019 08:00:00 5,0 4,5 - - 0,0
19.04.2019 07:00:00 3,5 2,9 - - 0,0
19.04.2019 06:00:00 3,9 3,2 - - 0,0
19.04.2019 05:00:00 5,0 4,0 - - 0,0
19.04.2019 04:00:00 5,3 4,1 - - 0,0
19.04.2019 03:00:00 6,5 5,0 - - 0,0
19.04.2019 02:00:00 6,7 4,5 - - 0,0
19.04.2019 01:00:00 7,9 5,3 - - 0,0
19.04.2019 00:00:00 8,4 5,7 - - 0,0
18.04.2019 23:00:00 9,0 5,8 - - 0,0
18.04.2019 22:00:00 10,2 6,4 - - 0,0
18.04.2019 21:00:00 12,2 5,8 - - 0,0
18.04.2019 20:00:00 14,8 6,4 - - 0,0
18.04.2019 19:00:00 16,4 7,3 - - 0,0
18.04.2019 18:00:00 17,9 9,4 - - 0,0
18.04.2019 17:00:00 18,1 9,9 - - 0,0
18.04.2019 16:00:00 19,1 9,2 - - 0,0
18.04.2019 15:00:00 18,2 8,6 - - 0,0
18.04.2019 14:00:00 17,6 8,4 - - 0,0
18.04.2019 13:00:00 17,3 8,5 - - 0,0
18.04.2019 12:00:00 15,3 8,5 - - 0,0
18.04.2019 11:00:00 12,6 7,3 - - 0,0
18.04.2019 10:00:00 10,8 6,6 9,5 8,2 0,0
18.04.2019 09:00:00 9,3 6,3 - - 0,0
18.04.2019 08:00:00 7,5 5,8 - - 0,0
18.04.2019 07:00:00 6,4 5,4 - - 0,0
18.04.2019 06:00:00 6,0 4,8 - - 0,0
18.04.2019 05:00:00 6,4 5,1 - - 0,0
18.04.2019 04:00:00 6,6 5,1 - - 0,0
18.04.2019 03:00:00 6,8 5,1 - - 0,0
18.04.2019 02:00:00 7,2 4,8 - - 0,0
18.04.2019 01:00:00 7,7 4,7 - - 0,0
18.04.2019 00:00:00 7,6 4,6 - - 0,0
17.04.2019 23:00:00 8,0 4,9 - - 0,0
17.04.2019 22:00:00 8,8 5,1 - - 0,0
17.04.2019 21:00:00 10,7 5,4 - - 0,0
17.04.2019 20:00:00 12,8 6,2 - - 0,0
17.04.2019 19:00:00 15,1 6,7 - - 0,0
17.04.2019 18:00:00 17,2 6,1 - - 0,0
17.04.2019 17:00:00 17,9 6,7 - - 0,0
17.04.2019 16:00:00 17,1 6,2 - - 0,0
17.04.2019 15:00:00 16,5 5,8 - - 0,0
17.04.2019 14:00:00 15,1 6,5 - - 0,0
17.04.2019 13:00:00 13,7 7,3 - - 0,0
17.04.2019 12:00:00 11,4 6,4 - - 0,0
17.04.2019 11:00:00 10,0 5,7 - - 0,0
17.04.2019 10:00:00 9,2 5,6 8,7 8,2 0,0
17.04.2019 09:00:00 8,3 5,4 - - 0,0
17.04.2019 08:00:00 6,6 5,1 - - 0,0
17.04.2019 07:00:00 5,8 4,3 - - 0,0
17.04.2019 06:00:00 6,0 4,3 - - 0,0
17.04.2019 05:00:00 6,1 4,3 - - 0,0
17.04.2019 04:00:00 6,1 4,3 - - 0,0
17.04.2019 03:00:00 6,2 4,1 - - 0,0
17.04.2019 02:00:00 6,5 4,3 - - 0,0
17.04.2019 01:00:00 6,8 4,5 - - 0,0
17.04.2019 00:00:00 6,8 4,7 - - 0,0
16.04.2019 23:00:00 7,3 5,2 - - 0,0
16.04.2019 22:00:00 7,8 5,6 - - 0,0
16.04.2019 21:00:00 8,4 6,4 - - 0,0
16.04.2019 20:00:00 9,2 7,0 - - 0,2
16.04.2019 19:00:00 9,9 7,7 - - 0,0
16.04.2019 18:00:00 10,3 8,2 - - 0,2
16.04.2019 17:00:00 10,8 8,4 - - 0,4
16.04.2019 16:00:00 11,3 7,5 - - 0,2
16.04.2019 15:00:00 11,5 7,6 - - 0,2
16.04.2019 14:00:00 12,0 6,9 - - 0,0
16.04.2019 13:00:00 10,9 6,8 - - 0,0
16.04.2019 12:00:00 10,4 6,2 - - 0,0
16.04.2019 11:00:00 9,9 6,3 - - 0,0
16.04.2019 10:00:00 9,2 6,4 8,5 8,0 0,0
16.04.2019 09:00:00 7,8 5,7 - - 0,0
16.04.2019 08:00:00 6,6 5,0 - - 0,0
16.04.2019 07:00:00 5,9 4,6 - - 0,0
16.04.2019 06:00:00 5,7 4,5 - - 0,0
16.04.2019 05:00:00 5,1 3,5 - - 0,0
16.04.2019 04:00:00 5,0 3,0 - - 0,0
16.04.2019 03:00:00 4,9 2,6 - - 0,0
16.04.2019 02:00:00 6,4 2,9 - - 0,0
16.04.2019 01:00:00 6,6 3,0 - - 0,0
16.04.2019 00:00:00 6,9 2,8 - - 0,0
15.04.2019 23:00:00 7,4 2,7 - - 0,0
15.04.2019 22:00:00 7,7 2,4 - - 0,0
15.04.2019 21:00:00 8,4 2,6 - - 0,0
15.04.2019 20:00:00 9,5 2,5 - - 0,0
15.04.2019 19:00:00 10,4 2,3 - - 0,0
15.04.2019 18:00:00 12,0 2,0 - - 0,0
15.04.2019 17:00:00 11,9 1,8 - - 0,0
15.04.2019 16:00:00 11,1 1,3 - - 0,0
15.04.2019 15:00:00 11,2 0,7 - - 0,0
15.04.2019 14:00:00 10,5 1,0 - - 0,0
15.04.2019 13:00:00 10,0 1,6 - - 0,0
15.04.2019 12:00:00 9,1 1,5 - - 0,0
15.04.2019 11:00:00 9,0 2,0 - - 0,0
15.04.2019 10:00:00 8,1 2,2 8,0 8,2 0,0
15.04.2019 09:00:00 6,0 1,5 - - 0,0
15.04.2019 08:00:00 4,2 0,6 - - 0,0
15.04.2019 07:00:00 3,6 0,1 - - 0,0
15.04.2019 06:00:00 3,5 0,1 - - 0,0
15.04.2019 05:00:00 3,3 -0,1 - - 0,0
15.04.2019 04:00:00 3,0 0,4 - - 0,0
15.04.2019 03:00:00 2,8 -0,4 - - 0,0
15.04.2019 02:00:00 3,8 0,0 - - 0,0
15.04.2019 01:00:00 4,3 -0,3 - - 0,0
15.04.2019 00:00:00 4,6 -0,4 - - 0,0
14.04.2019 23:00:00 5,1 -0,8 - - 0,0
14.04.2019 22:00:00 5,5 -1,1 - - 0,0
14.04.2019 21:00:00 5,9 -0,9 - - 0,0
14.04.2019 20:00:00 6,4 -0,9 - - 0,0
14.04.2019 19:00:00 7,2 -1,6 - - 0,0
14.04.2019 18:00:00 7,7 -1,6 - - 0,0
14.04.2019 17:00:00 7,7 -0,3 - - 0,0
14.04.2019 16:00:00 8,2 -0,2 - - 0,0
14.04.2019 15:00:00 8,3 -1,4 - - 0,0
14.04.2019 14:00:00 8,4 -1,0 - - 0,0
14.04.2019 13:00:00 8,2 -2,3 - - 0,0
14.04.2019 12:00:00 8,1 -0,3 - - 0,0
14.04.2019 11:00:00 7,1 -1,7 - - 0,0
14.04.2019 10:00:00 6,3 -1,8 8,2 8,2 0,0
14.04.2019 09:00:00 5,5 -0,7 - - 0,0
14.04.2019 08:00:00 1,3 -0,9 - - 0,0
14.04.2019 07:00:00 -1,7 -2,8 - - 0,0
14.04.2019 06:00:00 -1,9 -3,5 - - 0,0
14.04.2019 05:00:00 -1,5 -3,3 - - 0,0
14.04.2019 04:00:00 -0,8 -3,8 - - 0,0
14.04.2019 03:00:00 1,8 -3,2 - - 0,0
14.04.2019 02:00:00 2,3 -3,2 - - 0,0
14.04.2019 01:00:00 2,6 -3,3 - - 0,0
14.04.2019 00:00:00 3,1 -3,2 - - 0,0
13.04.2019 23:00:00 3,7 -3,0 - - 0,0
13.04.2019 22:00:00 4,4 -4,0 - - 0,0
13.04.2019 21:00:00 5,3 -3,5 - - 0,0
13.04.2019 20:00:00 6,6 -2,0 - - 0,0
13.04.2019 19:00:00 8,2 -2,7 - - 0,0
13.04.2019 18:00:00 8,6 -3,1 - - 0,0
13.04.2019 17:00:00 9,2 -2,9 - - 0,0
13.04.2019 16:00:00 9,3 -1,7 - - 0,0

tt = Temperatura
td = dewpoint
tt -20cm = Temperatura -20cm
tt -100cm = Temperatura -100cm
rr = precipitazioni

Stazioni seguenti

WeatherPro
AMSI
MeteoEarth